View from above orbital plane
|
View from above satellite
|
Ground track
|
The orbit data is extracted from the following two-line orbital elements,
1 16326U 85113A 13144.78918552 .00002225 00000-0 15142-3 0 6459
2 16326 082.5183 219.3951 0011047 333.4744 026.5916 15.05807537493295
| Epoch (UTC): | 24 May 2013 18:56:25 |
| Eccentricity: | 0.0011047 |
| inclination: | 82.5183° |
| perigee height: | 541 km |
| apogee height: | 556 km |
| right ascension of ascending node: | 219.3951° |
| argument of perigee: | 333.4744° |
| revolutions per day: | 15.05807537 |
| mean anomaly at epoch: | 26.5916° |
| orbit number at epoch: | 49329 |
The dashed part of the orbit path shows where the satellite is in the earth's shadow,
|
|